Home   Weather   Lord Howe Island   Past weeks
Flag for Australia

Past Weather in Lord Howe Island, Lord Howe Island, Australia — Yesterday and Last 2 Weeks

Now
52 °F

Passing clouds.


Feels Like: 52 °F
Forecast: 66 / 62 °F
Wind: No wind

Location: Lord Howe Island

Current Time: Oct 19, 2019 at 4:31:45 am

Latest Report: Oct 19, 2019 at 3:00 am


Visibility: N/A

Pressure: 30.05 "Hg

Humidity: 82%

Dew Point: 47 °F

Location of Lord Howe IslandLocation

Past Weather in Lord Howe Island — Graph

°F

Lord Howe Island Temperature Yesterday

Maximum temperature yesterday: 69 °F (at 1:00 am)
Minimum temperature yesterday: 57 °F (at 11:00 pm)
Average temperature yesterday: 66 °F

High & Low Weather Summary for the Past Weeks

 TemperatureHumidityPressure
High72 °F (Oct 17, 12:00 pm)93% (Oct 12, 6:00 am)30.29 "Hg (Oct 12, 6:00 am)
Low49 °F (Oct 12, 4:00 am)53% (Oct 14, 9:00 am)29.85 "Hg (Oct 9, 2:00 am)
Average64 °F75%30.01 "Hg
* Reported Oct 4 3:00 am — Oct 19 3:00 am, Lord Howe Island. Weather by CustomWeather, © 2019

Note: Actual official high and low records may vary slightly from our data, if they occured in-between our weather recording intervals... More about our weather records

Advertising

Lord Howe Island Weather History for the Previous 24 Hours

Scroll right to see more
 ConditionsComfort  
Time TempWeatherWind HumidityBarometerVisibility
3:00 am
Sat, Oct 19
52 °FPassing clouds.No wind82%30.05 "HgN/A
2:00 am53 °FCool.No wind81%30.06 "HgN/A
1:00 am54 °FCool.No wind79%30.07 "HgN/A
12:00 am55 °FCool.No wind79%30.08 "HgN/A
11:00 pm
Fri, Oct 18
57 °FCool.No wind75%30.08 "HgN/A
10:00 pm63 °FMild.5 mph71%30.07 "HgN/A
9:00 pm64 °FPassing clouds.7 mph70%30.06 "HgN/A
8:00 pm65 °FMild.8 mph68%30.05 "HgN/A
7:00 pm65 °FMild.9 mph68%30.03 "HgN/A
6:00 pm66 °FMild.12 mph66%30.01 "HgN/A
5:00 pm67 °FMild.12 mph66%29.99 "HgN/A
4:00 pm67 °FMild.13 mph65%29.99 "HgN/A
3:00 pm68 °FMild.15 mph64%29.98 "HgN/A
2:00 pm68 °FMild.15 mph63%29.99 "HgN/A
1:00 pm68 °FMild.15 mph63%29.99 "HgN/A
12:00 pm68 °FMild.16 mph64%29.99 "HgN/A
11:00 am68 °FMild.15 mph59%29.99 "HgN/A
10:00 am68 °FMild.13 mph64%30.00 "HgN/A
9:00 am67 °FMild.14 mph63%29.99 "HgN/A
8:00 am67 °FMild.12 mph72%29.97 "HgN/A
7:00 am65 °FMild.9 mph73%29.96 "HgN/A
6:00 am65 °FOvercast.13 mph77%29.92 "HgN/A
5:00 am65 °FMild.10 mph85%29.89 "HgN/A
4:00 am65 °FMild.14 mph83%29.87 "HgN/A
Weather by CustomWeather, © 2019

See weather overview